Location: Newark
(44.1667°N, 8.2500°E)
Time: 08:41:00
(UTC+00:00)

Vanguard 1 Rocket - Visible Passes

Search period start: 11 December 2019 00:00
Search period end: 21 December 2019 00:00
Orbit: 650 x 4226 km, 34.3° (Epoch: 10 December)

Date Brightness Start Highest point End Pass type
(mag) Time Alt. Az. Time Alt. Az. Time Alt. Az.
11 Dec 10.5 17:39:47 10° SSW 17:56:36 27° SSE 18:03:58 19° ESE visible
11 Dec 10.1 20:07:07 10° SW 20:21:15 40° SSW 20:21:15 40° SSW visible
11 Dec 11.3 22:38:24 10° WSW 22:38:33 10° WSW 22:38:33 10° WSW visible
12 Dec 10.9 16:29:18 10° S 16:43:29 19° SE 16:54:30 10° ESE visible
12 Dec 10.0 18:52:58 10° SW 19:12:06 40° SSE 19:14:09 38° SE visible
12 Dec 10.6 21:23:37 10° WSW 21:31:27 28° WSW 21:31:27 28° WSW visible
13 Dec 10.4 17:39:46 10° SSW 17:59:03 33° SSE 18:07:01 23° ESE visible
13 Dec 10.0 20:08:39 10° WSW 20:24:19 45° SSW 20:24:19 45° SSW visible
13 Dec 11.2 22:40:41 10° W 22:41:37 12° W 22:41:37 12° W visible
14 Dec 10.8 16:28:07 10° S 16:45:47 25° SE 16:58:55 10° E visible
14 Dec 9.9 18:54:03 10° SW 19:14:40 46° SSE 19:17:11 43° SE visible
14 Dec 10.6 21:25:39 10° WSW 21:34:28 30° WSW 21:34:28 30° WSW visible
15 Dec 10.3 17:40:17 10° SSW 18:01:27 39° SSE 18:10:02 25° ESE visible
15 Dec 9.9 20:10:23 10° WSW 20:27:19 50° SSW 20:27:19 50° SSW visible
15 Dec 11.2 22:43:00 10° W 22:44:36 13° W 22:44:36 13° W visible
16 Dec 10.8 16:27:50 10° SSW 16:47:59 32° SSE 17:02:41 10° E visible
16 Dec 9.8 18:55:24 10° SW 19:17:11 51° SSE 19:20:09 47° SE visible
16 Dec 10.5 21:27:45 10° WSW 21:37:26 32° WSW 21:37:26 32° WSW visible
17 Dec 10.2 17:41:11 10° SW 18:03:48 45° SSE 18:12:58 28° ESE visible
17 Dec 9.9 20:12:16 10° WSW 20:30:14 54° SSW 20:30:14 54° SSW visible
17 Dec 11.2 22:45:22 10° W 22:47:32 14° W 22:47:32 14° W visible
18 Dec 10.8 16:28:11 10° SSW 16:50:09 38° SSE 17:05:46 11° E visible
18 Dec 9.8 18:56:59 10° WSW 19:19:40 56° S 19:23:03 50° SE visible
18 Dec 10.5 21:29:55 10° W 21:40:20 34° WSW 21:40:20 34° WSW visible
19 Dec 10.2 17:42:26 10° SW 18:06:08 51° SSE 18:15:51 29° ESE visible
19 Dec 9.9 20:14:15 10° WSW 20:33:08 56° SSW 20:33:08 56° SSW visible
19 Dec 11.2 22:47:46 10° W 22:50:25 15° W 22:50:25 15° W visible
20 Dec 10.8 16:28:59 10° SW 16:52:16 44° SSE 17:08:38 12° E visible
20 Dec 9.8 18:58:45 10° WSW 19:22:08 59° S 19:25:54 52° SE visible
20 Dec 10.5 21:32:07 10° W 21:43:12 34° WSW 21:43:12 34° WSW visible
